Regional Weather Roundup
Issued by NWS Wakefield, VA

Home | Current Version | Previous Version | Graphics & Text | Print | Product List | Glossary On
Versions: 1 2 3 4 5 6 7 8 9 10 11 12 13 14 15 16 17 18 19 20 21 22 23 24 25 26 27 28 29 30 31 32 33 34 35 36 37 38 39 40 41 42 43 44 45 46 47 48 49 50
000
ASUS41 KAKQ 270910
RWRAKQ

REGIONAL WEATHER ROUNDUP
NATIONAL WEATHER SERVICE WAKEFIELD VA
400 AM EST THU NOV 27 2014

Note: "fair" indicates few or no clouds below 12,000 feet with no
significant weather and/or obstructions to visibility. * = Denotes
station may not report precipitation (e.g., rain,snow,etc.),
thunder or fog.

VAZ042-051-052>054-056-271000-
NORTHERN VIRGINIA

CITY           SKY/WX    TMP DP  RH WIND       PRES   REMARKS
WASH NATIONAL  CLOUDY    39  31  72 CALM      30.03S
DULLES         CLOUDY    33  33 100 CALM      30.02S
FORT BELVOIR   CLOUDY    32  32 100 CALM      30.03S FOG
QUANTICO       CLOUDY    35  32  88 W3        30.04S
FREDERICKSBRG* CLOUDY    36  36 100 CALM      30.03F
STAFFORD*      FOG       32  32 100 CALM      30.07S VSB 1/2
WARRENTON      CLOUDY    33  33 100 CALM      30.01S FOG
CULPEPER*      CLOUDY    34  34 100 CALM      30.03S FOG
MANASSAS*      CLOUDY    34  34 100 CALM      30.03R
LEESBURG*      CLOUDY    34  34 100 W3        30.01F
WINCHESTER     FOG       32  30  93 CALM      30.00S VSB 1/4
FRONT ROYAL*   CLOUDY    32  32 100 S5        29.99F
LURAY*         FOG       32  32 100 CALM      30.00S VSB 1/4
$$

VAZ048-049-060>072-079>083-271000-
CENTRAL AND SOUTH CENTRAL VIRGINIA

CITY           SKY/WX    TMP DP  RH WIND       PRES   REMARKS
RICHMOND       CLOUDY    39  37  93 CALM      30.04F
CHESTERFIELD*  CLOUDY    39  28  65 CALM      30.04F
PETERSBURG*    LGT RAIN  39  39  99 CALM      30.04F
HANOVER        CLOUDY    36  36 100 CALM      30.05S FOG
TAPPAHANNOCK*  CLOUDY    32  31  93 CALM      30.05S FOG
QUINTON*       CLOUDY    36  36  99 S3        30.04F
CHARLOTTSVILLE CLOUDY    34  33  96 W3        30.00S FOG
GORDONSVILLE*  FOG       32  31  99 CALM      30.01S VSB 1/4
ORANGE*        FOG       34  34 100 CALM      30.03S VSB 3/4
LOUISA*        FOG       36  34  93 CALM      30.01S VSB 1
BUMPASS*       CLOUDY    34  34  99 CALM      30.02F VSB 1/2
FARMVILLE*     CLOUDY    40  40 100 CALM        N/A
CREWE*         CLOUDY    39  38  96 CALM      30.02F
FORT PICKETT*  CLOUDY    38  37  99 SW5       30.03F
CHASE CITY*    CLOUDY    41  41 100 CALM      30.03F
CLARKSVILLE*     N/A     39  39 100 CALM      30.03F
SOUTH HILL*    CLOUDY    37  37  99 S3        30.10R
LAWRENCEVILLE* CLOUDY    37  37 100 CALM      30.04F
$$

VAZ088>098-271000-
SOUTHEAST VIRGINIA

CITY           SKY/WX    TMP DP  RH WIND       PRES   REMARKS
NORFOLK        MOCLDY    35  34  96 SW5       30.05S
VIRGINIA BEACH PTCLDY    36  34  92 W5        30.04S
NORFOLK NAVAL  CLOUDY    41  36  82 SW5       30.07R
WEST POINT*    CLOUDY    38  36  92 CALM      30.06F
SALUDA*        PTSUNNY   37  35  94 W3        30.04S
NEWPORT NEWS   CLOUDY    42  38  85 SW6       30.06R
LANGLEY AFB    CLOUDY    39 N/A N/A SW8       30.06S
FORT EUSTIS    CLOUDY    39  39 100 VRB2      30.04S
WILLIAMSBURG*  CLOUDY    43  39  87 W3        30.07R
HR EXEC AP*    CLOUDY    34  30  86 CALM      30.08S
FRANKLIN*      CLOUDY    37 N/A N/A W5        30.07S
WAKEFIELD      CLOUDY    38  36  92 SW5       30.06S
$$

VAZ020-022-025-037-045-271000-
WEST CENTRAL AND SOUTHWEST VIRGINIA

CITY           SKY/WX    TMP DP  RH WIND       PRES   REMARKS
STAUNTON*      FOG       28  26  94 CALM      30.01S VSB<1/4
WAYNESBORO*    CLOUDY    28  28  99 CALM      29.97F
HOT SPRINGS VA   N/A    N/A N/A N/A MISG        N/A
LYNCHBURG      CLOUDY    35  35 100 S3        30.01F
DANVILLE       LGT RAIN  41  38  89 CALM      30.03F FOG
SOUTH BOSTON*  CLOUDY    39  37  95 CALM      30.03F
MARTINSVILLE   CLOUDY    36  36 100 CALM      30.02F FOG
ROANOKE        CLOUDY    36  34  92 NE6       30.00F
BLACKSBURG     CLOUDY    34  34 100 CALM      29.97F FOG
DUBLIN*        CLOUDY    35  35 100 CALM      29.96F FOG
MARION*        CLOUDY    33  32  97 CALM      29.96F FOG
HILLSVILLE*    CLOUDY    35  29  78 CALM      29.93F
RICHLANDS*     CLOUDY    36  32  85 CALM      29.93F
WISE*          LGT SNOW  34  32  93 W3        29.95S
ABINGDON*      LGT SNOW  35  34  95 CALM      29.96S
$$

MDZ021>025-VAZ099-100-271000-
SOUTHERN MARYLAND AND THE DELMARVA PENINSULA

CITY           SKY/WX    TMP DP  RH WIND       PRES   REMARKS
PATUXENT RIVER MOCLDY    36  33  89 W5        30.03R
BAY BRIDGE APT   N/A     36  32  87 NW7       30.01F
LEONARDTOWN    CLOUDY    34  32  93 CALM      30.04S
DOVER          PTCLDY    35  33  91 W6        29.97F
GEORGETOWN     PTCLDY    37  33  85 CALM      29.99F
EASTON         PTCLDY    37  37 100 NW6       30.03F
CAMBRIDGE      MOCLDY    37  34  87 W3        30.01R
SALISBURY      PTCLDY    39  33  79 W5        30.00F
OCEAN CITY     PTCLDY    37  34  89 NW6       29.99F
WALLOPS ISLAND PTCLDY    37  34  89 NW7       30.01F
ACCOMACK*      MOCLDY    37  34  87 W6        30.02S
$$

NCZ012>017-030>032-271000-
NORTH CENTRAL AND EASTERN NORTH CAROLINA

CITY           SKY/WX    TMP DP  RH WIND       PRES   REMARKS
ROANOKE RAPIDS CLOUDY    36  36 100 CALM      30.06F
RALEIGH        MOCLDY    41  38  89 SE7       30.03F
ELIZABETH CITY MOCLDY    37  33  85 SW6       30.07S
AHOSKIE*       CLOUDY    37  36  96 CALM      30.08S
EDENTON*         N/A     39  38  97 SW6       30.07S
CURRITUCK*     CLEAR     36  35  94 SW3       30.07S
KILL DEVIL HLS CLEAR     40  37  90 CALM      30.05F
MANTEO         PTCLDY    40  37  87 CALM      30.07F
CAPE HATTERAS  CLOUDY    42  40  92 NW8       30.09F
TARBORO*       CLOUDY    38  37  97 CALM      30.08F
GOLDSBORO      MOCLDY    38  38  98 CALM      30.05F
WASHINGTON     CLOUDY    36  35  96 CALM      30.09R
GREENVILLE     PTCLDY    37  37 100 S3        30.09F
NEW BERN       MOCLDY    39  36  89 CALM      30.10S
WILMINGTON     FOG       37  37 100 CALM      30.08F VSB 1
$$

VAZ048-271000-
ELSEWHERE

CITY           SKY/WX    TMP DP  RH WIND       PRES   REMARKS
HARRISBURG PA  CLOUDY    34  29  82 NW8       29.98F
BALTIMORE      MOCLDY    34  32  92 W6        30.00S
ANNAPOLIS        N/A     35  32  88 W3        30.01S
ANDREWS AFB    CLOUDY    35  32  87 NW3       30.00S
PHILADELPHIA   CLOUDY    37  31  78 W9        29.99R
WILDWOOD NJ*   CLOUDY    37  30  75 NW8       29.96F
HENDERSON NC   CLOUDY    39  38  94 S5        30.04S FOG
GREENSBORO     CLOUDY    41  39  93 SE5       29.99S
ROCKY MOUNT    CLOUDY    39  37  92 S3        30.07F
$$

VAZ100-271000-
MARINE

STATION/POSITION TIME  TEMP    WIND        PRES    WAVE   SWELL
                       AIR SEA DIR/SP/G            HT/PER HT/PER
                 (UTC) (F)     (DEG/KT/KT) (MB)    (FT/S) (FT/S)
CAPE MAY NJ      0900   39 48  320/  8/ 13 1014.9R
LEWES DE         0900   38 47  280/ 10/ 13 1015.6R
15NM E FENWICK I 0900   41 54              1015.2R   8/ 8
OCEAN-CITY-INLET 0900   38 49  330/  9/ 11 1015.2F
WACHAPREAGUE VA  0900   39 48  280/  2/  4 1016.6R
THOMAS POINT MD  0900   37 47  300/  8/ 10 1017.4F
GOOSES REEF MD   0900   38     300/ 14/ 17 1016.9F
COVE POINT MD    0900   37     300/  9/ 12 1016.6R
SOLOMONS ISLAND  0900      49                N/A
BISHOPS HEAD MD  0900   40 44  300/ 12/ 16 1016.2R
PINEY POINT MD   0900          330/ 16/ 18   N/A
POTOMAC MD       0900   42     300/ 12/ 16 1015.9S
CAMBRIDGE MD     0900   39 45  300/ 10/ 12 1015.9R
LEWISETTA VA     0900   38 48  280/  6/  8 1016.8S
RAPPAHANNOCK LGT 0900          300/ 15/ 17 1017.4R
STINGRAY PT      0900   40     270/  8/ 10 1017.8R
YORK RVR RNG VA  0900   41     270/  8/  9 1016.8R
YORKTOWN VA      0900   40 51  240/ 11/ 12 1017.1R
JAMESTOWN VA     0900   39     290/  6/  8   N/A
DOMINION TERM VA 0900   40     230/  6/  7 1017.7R
KIPTOPEKE VA     0900      55  310/ 10/ 13   N/A
CHES BAY BRIDGE  0900   40 51  210/  9/ 10 1016.9R
CAPE HENRY VA    0900   38     220/  6/  7 1016.1R
CHESAPEAKE LGHT  0800   44     320/ 15/ 17 1017.6F
WILLOUBY STN VA  0900   39     220/ 11/ 12 1016.1S
S CRANEY ISL VA  0900          190/  4/  5 1017.5S
CAPE HENRY BUOY  0900      56                N/A     5/ 9   2/11
1ST LANDING BUOY 0900   43     250/ 10/ 12 1017.0R
CAPE CHARLES BUO 0900      55                N/A     4/10   3/10
64NM E OF VA BCH 0900   46 60  300/ 14/ 19 1016.5R   9/ 9   8/ 9
DUCK PIER NC     0900   41 54  260/  3/  4 1016.9F
44100 DUCK FRF   0900      59                N/A     6/10   2/11
44056 DUCK FRF   0900      57                N/A     5/10   2/11
OREGON INLET NC  0900   42 56  290/  6/  8 1018.3S
HATTERAS NC      0900   43 60  320/  7/ 10 1019.1F
DIAMOND SHLS NC  0900   48     280/ 12/ 16 1018.7F   8/ 9   7/ 9
CAPE LOOKOUT NC  0800   44      CALM  /  1 1019.0F
$$


USA.gov is the U.S. government's official web portal to all federal, state and local government web resources and services.